This demonstration page uses our WeatherBlox Daily Observations layout. Learn more.

Left ArrowRight Arrow

Hourly Observations for February 28, 2017

Temp ( °F °C ) Dew Point ( °F °C ) Humidity (%) Winds ( mph kmh ) Pressure ( in mb ) Visibility ( mi km ) Precip ( " mm )
12:53 am 00:53 Mostly Clear 14 -10 11 -11.7 88 88 NE 3 6 29.76 1008 10 16 0.00 0.00
1:53 am 01:53 Clear 14 -10 10 -12.2 84 84 E 3 6 29.75 1008 10 16 0.00 0.00
2:53 am 02:53 Clear 12 -11.1 9 -12.8 87 87 SE 3 6 29.76 1008 10 16 0.00 0.00
3:53 am 03:53 Clear 13 -10.6 10 -12.2 88 88 NE 3 6 29.75 1008 10 16 0.00 0.00
4:53 am 04:53 Clear 12 -11.1 9 -12.8 87 87 ENE 7 11 29.76 1008 10 16 0.00 0.00
5:10 am 05:10 Partly Cloudy 12 -11 10 -12 92 92 ENE 7 11 29.88 1012 10 16 0.00 0.00
5:18 am 05:18 Mostly Cloudy 12 -11 10 -12 92 92 ENE 8 13 29.88 1012 10 16 0.00 0.00
5:45 am 05:45 Partly Cloudy 13 -10.6 11 -11.7 92 92 E 10 17 29.88 1012 10 16 0.00 0.00
5:53 am 05:53 Mostly Clear 12 -11.1 10 -12.2 92 92 ENE 8 13 29.77 1008 10 16 0.00 0.00
6:53 am 06:53 Clear 12 -11.1 10 -12.2 92 92 ENE 13 20 29.78 1008 10 16 0.00 0.00
7:30 am 07:30 Partly Cloudy with Mist and Fog 12 -11 10 -12 92 92 ENE 9 15 29.88 1012 3 4 0.00 0.00
7:42 am 07:42 Mostly Cloudy 12 -11 10 -12 92 92 ENE 10 17 29.88 1012 8 13 0.00 0.00
7:53 am 07:53 Mostly Cloudy 13 -10.6 12 -11.1 96 96 ENE 13 20 29.80 1009 9 14 0.00 0.00
8:21 am 08:21 Cloudy 14 -10 13 -10.6 95 95 ENE 10 17 29.88 1012 10 16 0.00 0.00
8:31 am 08:31 Cloudy 14 -10 13 -10.6 95 95 ENE 10 17 29.88 1012 10 16 0.00 0.00
8:53 am 08:53 Cloudy 15 -9.4 13 -10.6 91 91 ENE 13 20 29.81 1010 10 16 0.00 0.00
9:11 am 09:11 Cloudy 15 -9.4 14 -10 95 95 ENE 13 20 29.88 1012 9 14 0.00 0.00
9:53 am 09:53 Cloudy 17 -8.3 15 -9.4 92 92 ENE 13 20 29.83 1010 10 16 0.00 0.00
10:25 am 10:25 Cloudy with Light Snow 18 -7.8 16 -8.9 92 92 ENE 13 20 29.91 1013 3 4 0.00 0.03
10:40 am 10:40 Cloudy with Light Snow 18 -8 16 -9 93 93 ENE 10 17 29.91 1013 3 5 0.00 0.00
10:53 am 10:53 Cloudy with Light Snow 19 -7.2 16 -8.9 88 88 ENE 15 24 29.83 1010 5 8 0.00 0.03
11:15 am 11:15 Cloudy 19 -7.2 16 -8.9 88 88 ENE 13 20 29.88 1012 10 16 0.00 0.03
11:34 am 11:34 Cloudy 19 -7 18 -8 93 93 ENE 14 22 29.88 1012 10 16 0.00 0.00
11:53 am 11:53 Cloudy 20 -6.7 16 -8.9 85 85 E 15 24 29.83 1010 10 16 0.00 0.03
12:26 pm 12:26 Cloudy 21 -6.1 17 -8.3 85 85 ENE 13 20 29.88 1012 10 16 0.00 0.00
12:53 pm 12:53 Cloudy 22 -5.6 17 -8.3 82 82 NE 12 19 29.85 1011 10 16 0.00 0.03
1:53 pm 13:53 Cloudy with Light Snow 22 -5.6 17 -8.3 82 82 NNE 7 11 29.87 1012 6 10 0.00 0.03
2:17 pm 14:17 Cloudy with Light Snow 24 -4.4 18 -7.8 77 77 NE 9 15 29.91 1013 2 3 0.00 0.03
2:53 pm 14:53 Cloudy with Light Snow 24 -4.4 19 -7.2 81 81 NE 8 13 29.90 1013 2 3 0.00 0.03
3:12 pm 15:12 Cloudy with Light Snow 25 -4 19 -7 80 80 NNE 7 11 29.94 1014 3 5 0.00 0.00
3:25 pm 15:25 Cloudy with Light Snow 24 -4.4 18 -7.8 77 77 N 10 17 29.94 1014 3 4 0.01 0.25
3:35 pm 15:35 Cloudy with Light Snow 24 -4.4 18 -7.8 77 77 NNE 13 20 29.94 1014 4 6 0.01 0.25
3:44 pm 15:44 Cloudy with Light Snow 25 -4 18 -8 74 74 NNE 12 19 29.94 1014 5 8 0.00 0.00
3:53 pm 15:53 Cloudy with Light Snow 24 -4.4 17 -8.3 75 75 NE 10 17 29.93 1014 7 11 0.01 0.25
4:25 pm 16:25 Cloudy with Light Snow 24 -4.4 19 -7.2 81 81 N 9 15 29.97 1015 4 6 0.00 0.03
4:41 pm 16:41 Cloudy with Light Snow 24 -4.4 19 -7.2 81 81 N 12 19 29.97 1015 2 3 0.00 0.03
4:53 pm 16:53 Cloudy with Light Snow 24 -4.4 18 -7.8 77 77 N 9 15 29.97 1015 2 3 0.00 0.03
5:05 pm 17:05 Cloudy with Light Snow 24 -4.4 18 -7.8 77 77 NNE 8 13 30.00 1016 3 5 0.00 0.03
5:53 pm 17:53 Cloudy with Haze 23 -5 18 -7.8 81 81 Calm 30.00 1016 5 8 0.00 0.03
6:03 pm 18:03 Cloudy with Light Snow 23 -5 18 -8 80 80 Calm 30.03 1017 3 4 0.00 0.00
6:28 pm 18:28 Cloudy with Light Snow 21 -6 18 -8 86 86 Calm 30.09 1019 3 5 0.00 0.00
6:53 pm 18:53 Cloudy with Light Snow 21 -6.1 19 -7.2 92 92 SW 5 7 30.03 1017 4 6 0.00 0.03
6:59 pm 18:59 Cloudy with Light Snow 21 -6.1 19 -7.2 92 92 SW 3 6 30.09 1019 3 4 0.00 0.03
7:13 pm 19:13 Cloudy with Light Snow 22 -5.6 19 -7.2 89 89 W 8 13 30.09 1019 3 5 0.00 0.03
7:22 pm 19:22 Cloudy with Light Snow 21 -6 19 -7 93 93 W 8 13 30.09 1019 3 4 0.00 0.00
7:34 pm 19:34 Cloudy with Light Snow 21 -6 19 -7 93 93 WNW 6 9 30.09 1019 4 6 0.00 0.00
7:51 pm 19:51 Cloudy with Light Snow 21 -6 19 -7 93 93 W 6 9 30.12 1020 3 5 0.00 0.03
7:53 pm 19:53 Cloudy with Light Snow 21 -6.1 19 -7.2 92 92 W 8 13 30.05 1018 3 5 0.00 0.03
8:29 pm 20:29 Cloudy with Light Snow 20 -6.7 18 -7.8 92 92 WNW 7 11 30.12 1020 4 6 0.01 0.25
8:53 pm 20:53 Cloudy with Mist and Fog 19 -7.2 17 -8.3 92 92 WSW 5 7 30.08 1019 5 8 0.01 0.25
9:40 pm 21:40 Cloudy with Light Snow 19 -7 18 -8 93 93 WSW 6 9 30.15 1021 3 4 0.00 0.00
9:53 pm 21:53 Cloudy with Light Snow 19 -7.2 17 -8.3 92 92 WSW 7 11 30.09 1019 2 3 0.00 0.03
10:04 pm 22:04 Cloudy with Light Snow 19 -7 18 -8 93 93 WSW 7 11 30.15 1021 3 5 0.00 0.00
10:16 pm 22:16 Cloudy with Light Snow 19 -7 18 -8 93 93 WSW 6 9 30.15 1021 2 3 0.00 0.00
10:32 pm 22:32 Cloudy with Light Snow 18 -8 16 -9 93 93 WSW 7 11 30.18 1022 3 5 0.00 0.00
10:44 pm 22:44 Cloudy with Mist and Fog 18 -8 16 -9 93 93 WSW 6 9 30.18 1022 5 8 0.00 0.00
10:53 pm 22:53 Cloudy with Mist and Fog 19 -7.2 17 -8.3 92 92 WSW 7 11 30.09 1019 5 8 0.01 0.25
11:14 pm 23:14 Cloudy with Light Snow 19 -7 18 -8 93 93 WSW 7 11 30.15 1021 2 3 0.00 0.00
11:18 pm 23:18 Cloudy with Light Snow 19 -7 18 -8 93 93 WSW 7 11 30.15 1021 2 3 0.00 0.00
11:28 pm 23:28 Cloudy with Light Snow 19 -7 18 -8 93 93 WSW 6 9 30.15 1021 3 4 0.00 0.00
11:34 pm 23:34 Cloudy with Light Snow 19 -7 18 -8 93 93 WSW 6 9 30.15 1021 4 6 0.00 0.00
11:53 pm 23:53 Cloudy with Light Snow 17 -8.3 15 -9.4 92 92 WSW 7 11 30.09 1019 5 8 0.00 0.03

Powered by AerisWeather